FW9752 Weather Reports


time (UTC)temp
F
wind
direction
speed
knots
gust
knots
rain 1hr
in
rain 24hr
in
rain mn
in
humidity
%
barometer
mb
20260504081543 64 266 1.7 3.5 0.00 0.00 0.00 63 1007.8
20260504044536 67 266 4.3 7.0 0.00 0.00 0.00 58 1008.6
20260504043047 68 266 3.5 6.1 0.00 0.00 0.00 57 1008.6
20260504041542 68 266 3.5 6.1 0.00 0.00 0.00 56 1008.8
20260504040047 68 266 3.5 7.8 0.00 0.00 0.00 57 1009.1
20260504034541 69 266 3.5 7.8 0.00 0.00 0.00 56 1009.2
20260504033036 69 271 5.2 8.7 0.00 0.00 0.00 55 1009.2
20260504031554 70 277 4.3 10.4 0.00 0.00 0.00 55 1009.4
20260504030044 70 266 6.1 9.6 0.00 0.00 0.00 55 1009.3
20260504024540 70 266 5.2 11.3 0.00 0.00 0.00 55 1009.3
20260504023043 70 266 5.2 12.2 0.00 0.00 0.00 54 1009.1
20260504021540 71 266 5.2 9.6 0.00 0.00 0.00 53 1009.1
20260504020039 71 266 3.5 8.7 0.00 0.00 0.00 53 1009.2
20260504014546 72 266 5.2 9.6 0.00 0.00 0.00 52 1009.3
20260504013046 72 266 4.3 8.7 0.00 0.00 0.00 51 1009.1
20260504011542 73 266 4.3 8.7 0.00 0.00 0.00 49 1009.2
20260504010048 74 273 5.2 7.8 0.00 0.00 0.00 48 1008.9
20260504004541 75 284 6.1 10.4 0.00 0.00 0.00 47 1009.0
20260504003040 76 266 5.2 12.2 0.00 0.00 0.00 47 1009.2
20260504001548 77 269 5.2 13.0 0.00 0.00 0.00 45 1009.2
20260504000036 78 282 6.1 11.3 0.00 0.00 0.00 45 1009.3
20260503234601 78 301 7.8 11.3 0.00 0.00 0.00 44 1009.5
20260503233047 78 293 6.1 13.0 0.00 0.00 0.00 45 1009.6
20260503231539 77 271 7.8 13.0 0.00 0.00 0.00 44 1009.6
20260503230041 77 278 4.3 9.6 0.00 0.00 0.00 45 1009.7
20260503224536 77 297 6.1 14.8 0.00 0.00 0.00 43 1009.7
20260503223043 78 293 7.0 13.9 0.00 0.00 0.00 41 1009.8
20260503221553 78 266 8.7 17.4 0.00 0.00 0.00 41 1009.8
20260503220043 79 276 9.6 20.0 0.00 0.00 0.00 40 1009.8
20260503214539 79 291 8.7 15.6 0.00 0.00 0.00 40 1009.8
20260503213038 79 267 6.1 19.1 0.00 0.00 0.00 41 1009.8
20260503211546 79 275 13.9 20.9 0.00 0.00 0.00 39 1010.1
20260503210043 79 285 10.4 22.6 0.00 0.00 0.00 42 1010.2
20260503204545 79 279 9.6 17.4 0.00 0.00 0.00 42 1010.2
20260503203053 78 266 12.2 19.1 0.00 0.00 0.00 41 1010.3
20260503201544 77 292 13.9 21.7 0.00 0.00 0.00 42 1010.7
20260503200039 77 290 14.8 21.7 0.00 0.00 0.00 42 1010.9
20260503194550 77 266 7.8 25.2 0.00 0.00 0.00 46 1011.0
20260503193043 76 267 10.4 22.6 0.00 0.00 0.00 45 1011.1
20260503191544 76 266 14.8 24.3 0.00 0.00 0.00 45 1011.3
20260503190042 75 267 12.2 22.6 0.00 0.00 0.00 46 1011.8
20260503184539 74 276 11.3 20.0 0.00 0.00 0.00 45 1012.1
20260503183036 73 267 13.9 21.7 0.00 0.00 0.00 45 1012.4
20260503181543 73 269 12.2 21.7 0.00 0.00 0.00 45 1012.8
20260503180055 72 267 9.6 21.7 0.00 0.00 0.00 47 1013.3
20260503174543 72 267 9.6 20.9 0.00 0.00 0.00 45 1013.7
20260503173041 71 267 9.6 19.1 0.00 0.00 0.00 46 1014.2
20260503171546 70 267 9.6 16.5 0.00 0.00 0.00 47 1014.6